Location: Fredericton
(45.9636°N, 66.6431°W)
Time: 07:45:37
(UTC-04:00)

ISS - Visible Passes

Search period start: 22 January 2018 00:00
Search period end: 01 February 2018 00:00
Orbit: 402 x 407 km, 51.6° (Epoch: 22 January)

Date Brightness Start Highest point End Pass type
(mag) Time Alt. Az. Time Alt. Az. Time Alt. Az.
25 Jan -2.2 19:22:25 10° SSW 19:24:19 27° S 19:24:19 27° S visible
26 Jan -2.2 18:30:43 10° S 18:33:16 21° SE 18:34:25 18° ESE visible
26 Jan -0.9 20:06:14 10° WSW 20:07:05 17° WSW 20:07:05 17° WSW visible
27 Jan -3.9 19:13:51 10° SW 19:17:05 77° SSE 19:17:05 77° SSE visible
28 Jan -3.3 18:21:40 10° SW 18:24:48 44° SE 18:27:01 17° ENE visible
28 Jan -1.4 19:58:10 10° W 19:59:40 23° WNW 19:59:40 23° WNW visible
29 Jan -3.5 19:05:36 10° WSW 19:08:49 58° NNW 19:09:32 45° NNE visible
30 Jan -3.9 18:13:09 10° WSW 18:16:24 89° NNW 18:19:20 12° ENE visible
30 Jan -1.7 19:50:10 10° WNW 19:51:59 24° NW 19:51:59 24° NW visible
31 Jan -2.8 18:57:30 10° W 19:00:36 38° NNW 19:01:44 28° NNE visible
